[[{"header":{"parameterUnit":"m.s-1","parameterCategory":1,"la1":30.2991,"la2":30.254,"lo1":-89.0895,"lo2":-89.0444,"dy":0.0017,"dx":0.0017,"nx":28,"ny":28,"refTime":"2024-07-25T03:00:00:Z","depth":0,"parameterNumber":2,"parameterNumberName":"U-component_of_WINDS"},"data":[0,0,0,0,0,0,0,0,0,0,0,0,0,0,0,0,0,0,0,0,0,0,0,0,0,0,0,0,0,0,0,0,0,0,0,0,0,0,0,0,0,0,0,0,0,0,0,0,0,0,0,0,0,0,0,0,0,0,-0.6841,-0.684,0,-0.6779,-0.6778,-0.6777,-0.6721,-0.6721,-0.672,-0.6719,-0.666,-0.6659,-0.6658,0,0,0,0,0,0,0,0,0,0,0,0,0,-0.6912,-0.6911,-0.6841,-0.684,-0.6839,-0.6779,-0.6778,-0.6777,-0.6722,-0.6721,-0.672,-0.6719,-0.666,-0.6659,-0.6658,0,0,0,0,0,0,0,0,0,0,0,0,0,-0.6869,-0.6911,-0.6841,-0.6804,-0.68,-0.6779,-0.6778,-0.6777,-0.6722,-0.6721,-0.672,-0.6719,-0.666,-0.6659,-0.6658,-0.6669,0,0,-0.6653,-0.6652,0,0,0,0,0,0,0,0,-0.6871,-0.6866,-0.681,-0.6806,-0.6802,-0.6757,-0.6781,-0.6741,-0.6722,-0.6752,-0.6719,-0.6718,-0.6693,-0.6689,-0.6679,-0.6666,-0.6663,-0.6653,-0.6652,-0.6651,-0.6651,0,0,0,0,0,0,0,-0.6874,-0.6868,-0.6816,-0.6809,-0.6804,-0.6791,-0.6784,-0.6773,-0.6729,-0.6749,-0.6745,-0.6738,-0.6691,-0.6681,-0.6678,-0.6663,-0.6653,-0.6652,-0.6651,-0.665,-0.6652,-0.6653,0,0,0,0,0,0,-0.6883,-0.6871,-0.6818,-0.6814,-0.6835,-0.679,-0.6782,-0.6772,-0.6729,-0.6721,-0.6739,-0.6736,-0.6684,-0.6679,-0.6675,-0.6684,-0.6651,-0.665,-0.6649,-0.6651,-0.6652,-0.6653,0,0,0,0,0,0,-0.6884,-0.6878,-0.6821,-0.6842,-0.6833,-0.679,-0.6779,-0.6772,-0.6762,-0.6721,-0.6713,-0.6737,-0.6683,-0.6677,-0.667,-0.6681,-0.6649,-0.6648,-0.665,-0.6651,-0.6653,-0.6702,0,0,0,0,0,0,-0.6887,-0.6879,-0.6883,-0.6842,-0.6832,-0.6816,-0.678,-0.6771,-0.6759,-0.6754,-0.6717,-0.671,-0.6682,-0.6672,-0.6668,-0.6679,-0.6647,-0.6649,-0.6651,-0.6652,-0.67,-0.6705,-0.671,0,0,0,0,0,-0.6889,-0.6901,-0.6884,-0.6878,-0.6836,-0.6817,-0.6811,-0.6777,-0.676,-0.6764,-0.6737,-0.6712,-0.668,-0.6672,-0.6667,-0.6677,-0.6648,-0.665,-0.6652,-0.6697,-0.6704,-0.671,0,0,0,0,0,0,-0.6948,-0.6896,-0.6876,-0.6874,-0.685,-0.6808,-0.6811,-0.6786,-0.6768,-0.6764,-0.6723,-0.6715,-0.6712,-0.6694,-0.6685,-0.6684,-0.666,-0.6662,-0.6697,-0.6703,-0.6708,-0.6713,-0.6646,0,0,0,0,0,-0.696,-0.6948,-0.6903,-0.6907,-0.6895,-0.6855,-0.6846,-0.6821,-0.6795,-0.6785,-0.6758,-0.6734,-0.6718,-0.671,-0.6693,-0.6696,-0.6686,-0.67,-0.6705,-0.671,-0.6712,-0.671,-0.6715,-0.666,-0.666,-0.666,0,0,-0.6986,-0.6956,-0.6952,-0.6917,-0.6896,-0.6884,-0.6847,-0.6838,-0.6829,-0.6784,-0.6774,-0.6753,-0.6724,-0.6721,-0.6719,-0.6706,-0.6724,-0.6713,-0.6717,-0.6716,-0.6712,-0.6718,-0.6722,-0.6661,-0.6661,-0.6661,0,0,-0.7028,-0.7004,-0.7003,-0.6981,-0.6948,-0.692,-0.692,-0.688,-0.6864,-0.6853,-0.6818,-0.6807,-0.6782,-0.6762,-0.6748,-0.6777,-0.6753,-0.6773,-0.6802,-0.68,-0.6804,-0.6808,-0.6817,-0.6821,-0.6775,-0.6775,-0.6775,0,-0.7065,-0.7046,-0.7006,-0.6997,-0.6983,-0.6939,-0.6937,-0.6918,-0.6882,-0.6873,-0.6858,-0.6823,-0.6801,-0.6791,-0.6798,-0.6789,-0.6787,-0.6778,-0.6807,-0.681,-0.6813,-0.6821,-0.6825,-0.6778,-0.6778,-0.6777,-0.6777,0,-0.7092,-0.7079,-0.7082,-0.7046,-0.7031,-0.7026,-0.6986,-0.6976,-0.6951,-0.6925,-0.6914,-0.6884,-0.686,-0.6855,-0.6833,-0.6842,-0.6835,-0.6814,-0.679,-0.6821,-0.6828,-0.6831,-0.6782,-0.6781,-0.678,-0.6779,0,0,-0.7173,-0.7111,-0.7113,-0.7094,-0.7052,-0.7041,-0.7033,-0.7007,-0.6999,-0.6975,-0.6966,-0.6944,-0.6923,-0.6908,-0.6882,-0.688,-0.6903,-0.6859,-0.6858,-0.6868,-0.691,-0.6926,-0.693,-0.6886,-0.6886,-0.6887,-0.6912,0,-0.7207,-0.7189,-0.7151,-0.7145,-0.7132,-0.7088,-0.708,-0.7054,-0.7028,-0.7013,-0.6985,-0.6969,-0.6944,-0.6934,-0.693,-0.6901,-0.6911,-0.6899,-0.6878,-0.6878,-0.6887,-0.6934,-0.6952,-0.6977,-0.6915,-0.6915,-0.6915,0,-0.7247,-0.7222,-0.7214,-0.7169,-0.7162,-0.7156,-0.7128,-0.7114,-0.7082,-0.7063,-0.7044,-0.7014,-0.7002,-0.6978,-0.6961,-0.6954,-0.6942,-0.6927,-0.6927,-0.6924,-0.6899,-0.6933,-0.6985,-0.6989,-0.692,-0.6919,-0.6919,0,-0.7305,-0.727,-0.7259,-0.7245,-0.7193,-0.719,-0.7168,-0.7135,-0.712,-0.7096,-0.7086,-0.7061,-0.7047,-0.7028,-0.6992,-0.6978,-0.6978,-0.6952,-0.6962,-0.6963,-0.6965,-0.6966,-0.7016,-0.6958,-0.6958,-0.6958,-0.6958,0,-0.7348,-0.7345,-0.7284,-0.7278,-0.7272,-0.7228,-0.7224,-0.7198,-0.7168,-0.7156,-0.7116,-0.7106,-0.7058,-0.7042,-0.7014,-0.7003,-0.6997,-0.6982,-0.6974,-0.6985,-0.6987,-0.6978,-0.6976,-0.6959,-0.6958,-0.6958,-0.6958,0,-0.7414,-0.7373,-0.7358,-0.7309,-0.7296,-0.7294,-0.7252,-0.7244,-0.7214,-0.7199,-0.7193,-0.7147,-0.7126,-0.7087,-0.7055,-0.7036,-0.7031,-0.7018,-0.7041,-0.7036,-0.7048,-0.7048,-0.7095,-0.7099,-0.7038,-0.7039,-0.704,0,-0.7444,-0.744,-0.7389,-0.7376,-0.7356,-0.7337,-0.7321,-0.7276,-0.7262,-0.7222,-0.7219,-0.7194,-0.7171,-0.7139,-0.7103,-0.7078,-0.7064,-0.7082,-0.706,-0.707,-0.7063,-0.7064,-0.7063,-0.7088,-0.7088,-0.7089,-0.709,0,-0.7503,-0.7482,-0.746,-0.7429,-0.7411,-0.7386,-0.7358,-0.7351,-0.73,-0.7285,-0.7261,-0.7243,-0.7208,-0.7184,-0.7152,-0.713,-0.7101,-0.7096,-0.7097,-0.7109,-0.7122,-0.7114,-0.7055,-0.7096,-0.7095,-0.7095,-0.7095,-0.7094,-0.7552,-0.7544,-0.7506,-0.7482,-0.7456,-0.743,-0.7419,-0.7386,-0.7365,-0.7332,-0.7307,-0.7285,-0.725,-0.7204,-0.7183,-0.7165,-0.7152,-0.7153,-0.7154,-0.7155,-0.7159,-0.7124,-0.7159,-0.7159,-0.7159,-0.7158,-0.7158,0,-0.7608,-0.7579,-0.7557,-0.7518,-0.7499,-0.747,-0.7438,-0.7424,-0.7404,-0.7373,-0.735,-0.7321,-0.7296,-0.7256,-0.7227,-0.722,-0.7206,-0.7214,-0.7215,-0.721,-0.7173,-0.7174,-0.7226,-0.7226,-0.7226,-0.7226,-0.7226,-0.7226,-0.7635,-0.762,-0.7594,-0.7566,-0.7538,-0.7514,-0.7497,-0.7473,-0.7447,-0.7416,-0.7394,-0.7367,-0.7332,-0.73,-0.7275,-0.7264,-0.7255,-0.7267,-0.7252,-0.7219,-0.7213,-0.7207,-0.7208,-0.7266,-0.7266,-0.7291,-0.7291,-0.7291]},{"header":{"parameterUnit":"m.s-1","parameterCategory":1,"la1":30.2991,"la2":30.254,"lo1":-89.0895,"lo2":-89.0444,"dy":0.0017,"dx":0.0017,"nx":28,"ny":28,"refTime":"2024-07-25T03:00:00:Z","depth":0,"parameterNumber":3,"parameterNumberName":"V-component_of_WINDS"},"data":[0,0,0,0,0,0,0,0,0,0,0,0,0,0,0,0,0,0,0,0,0,0,0,0,0,0,0,0,0,0,0,0,0,0,0,0,0,0,0,0,0,0,0,0,0,0,0,0,0,0,0,0,0,0,0,0,0,0,-4.4029,-4.4028,0,-4.3924,-4.3923,-4.3922,-4.3859,-4.3858,-4.3858,-4.3858,-4.3743,-4.374,-4.3737,0,0,0,0,0,0,0,0,0,0,0,0,0,-4.4169,-4.4166,-4.4029,-4.4028,-4.4027,-4.3924,-4.3923,-4.3921,-4.3859,-4.3858,-4.3858,-4.3858,-4.3744,-4.374,-4.3737,0,0,0,0,0,0,0,0,0,0,0,0,0,-4.409,-4.4166,-4.403,-4.3983,-4.3978,-4.3925,-4.3923,-4.3921,-4.3859,-4.3858,-4.3858,-4.3857,-4.3745,-4.3741,-4.3737,-4.3719,0,0,-4.3724,-4.3722,0,0,0,0,0,0,0,0,-4.4095,-4.4085,-4.3991,-4.3986,-4.398,-4.3904,-4.393,-4.3853,-4.3859,-4.3904,-4.3858,-4.3857,-4.3796,-4.3788,-4.3769,-4.3713,-4.3709,-4.3723,-4.3721,-4.3719,-4.3718,0,0,0,0,0,0,0,-4.41,-4.4089,-4.3987,-4.399,-4.3983,-4.3965,-4.3954,-4.3915,-4.3853,-4.39,-4.3895,-4.3884,-4.3793,-4.3773,-4.3766,-4.3707,-4.3723,-4.372,-4.3717,-4.3715,-4.363,-4.363,0,0,0,0,0,0,-4.4114,-4.4094,-4.3991,-4.3984,-4.4038,-4.3963,-4.395,-4.3929,-4.3854,-4.3842,-4.3884,-4.3881,-4.378,-4.3771,-4.3761,-4.3734,-4.3719,-4.3715,-4.3713,-4.363,-4.363,-4.363,0,0,0,0,0,0,-4.4117,-4.4105,-4.3995,-4.4038,-4.4023,-4.3961,-4.3938,-4.3927,-4.3907,-4.3842,-4.383,-4.3875,-4.378,-4.3767,-4.373,-4.373,-4.3713,-4.3709,-4.3629,-4.363,-4.363,-4.3682,0,0,0,0,0,0,-4.4122,-4.4107,-4.4101,-4.4038,-4.4021,-4.3968,-4.3938,-4.3925,-4.3901,-4.3896,-4.3831,-4.3819,-4.3778,-4.3737,-4.3726,-4.3724,-4.3706,-4.3629,-4.363,-4.363,-4.368,-4.3684,-4.3687,0,0,0,0,0,-4.4127,-4.4119,-4.4101,-4.4089,-4.4013,-4.3968,-4.3957,-4.3913,-4.3901,-4.3893,-4.3852,-4.3821,-4.3732,-4.3733,-4.3721,-4.3717,-4.3629,-4.3629,-4.363,-4.3678,-4.3683,-4.3687,0,0,0,0,0,0,-4.418,-4.4109,-4.4089,-4.4061,-4.4022,-4.3958,-4.3947,-4.392,-4.388,-4.3877,-4.3821,-4.3807,-4.3775,-4.3742,-4.3745,-4.3695,-4.3677,-4.3675,-4.3718,-4.3722,-4.3726,-4.3733,-4.3703,0,0,0,0,0,-4.419,-4.4162,-4.41,-4.4081,-4.4062,-4.4008,-4.3987,-4.3956,-4.3912,-4.3894,-4.3849,-4.3805,-4.3767,-4.3743,-4.3704,-4.3675,-4.3659,-4.3666,-4.367,-4.3674,-4.3672,-4.3653,-4.3655,-4.3632,-4.3632,-4.3632,0,0,-4.4207,-4.4164,-4.415,-4.4091,-4.4056,-4.4026,-4.3994,-4.3964,-4.394,-4.3888,-4.3851,-4.3817,-4.3764,-4.3731,-4.3713,-4.3702,-4.3675,-4.3674,-4.3678,-4.3674,-4.3653,-4.3656,-4.3658,-4.3633,-4.3633,-4.3632,0,0,-4.4222,-4.4189,-4.4169,-4.4136,-4.4085,-4.4049,-4.4044,-4.3985,-4.3961,-4.3923,-4.3883,-4.3853,-4.3789,-4.3752,-4.3725,-4.3729,-4.3698,-4.3717,-4.3736,-4.3718,-4.372,-4.3721,-4.3721,-4.3721,-4.3716,-4.3716,-4.3716,0,-4.425,-4.4205,-4.4161,-4.4134,-4.4108,-4.4062,-4.404,-4.4009,-4.3947,-4.3929,-4.3919,-4.3837,-4.3798,-4.3755,-4.3756,-4.3736,-4.3727,-4.3724,-4.3724,-4.3725,-4.3725,-4.3724,-4.3724,-4.3719,-4.3719,-4.3718,-4.3718,0,-4.424,-4.421,-4.42,-4.4144,-4.4117,-4.4092,-4.4042,-4.402,-4.3992,-4.3957,-4.3918,-4.387,-4.382,-4.3808,-4.3779,-4.376,-4.3755,-4.3735,-4.3715,-4.373,-4.3728,-4.3727,-4.3723,-4.3722,-4.3721,-4.372,0,0,-4.4285,-4.4207,-4.4203,-4.4177,-4.4118,-4.4093,-4.4065,-4.4019,-4.4,-4.3959,-4.3933,-4.388,-4.3862,-4.3831,-4.3798,-4.3782,-4.3786,-4.3764,-4.3761,-4.3768,-4.376,-4.3775,-4.3775,-4.3767,-4.3766,-4.3766,-4.3764,0,-4.4291,-4.4242,-4.4202,-4.4167,-4.4137,-4.4094,-4.4069,-4.4029,-4.3996,-4.3964,-4.3925,-4.3889,-4.3867,-4.3849,-4.3832,-4.3789,-4.3783,-4.3789,-4.3739,-4.3738,-4.3752,-4.3774,-4.3789,-4.379,-4.3763,-4.3763,-4.3763,0,-4.4291,-4.4255,-4.4217,-4.4161,-4.4147,-4.4126,-4.4081,-4.4052,-4.4005,-4.3981,-4.3948,-4.3914,-4.388,-4.3865,-4.3817,-4.3822,-4.3799,-4.3775,-4.3774,-4.3766,-4.375,-4.3765,-4.3789,-4.3788,-4.3761,-4.3761,-4.3762,0,-4.4326,-4.4267,-4.4237,-4.4216,-4.415,-4.4136,-4.4108,-4.4061,-4.4035,-4.3995,-4.3977,-4.3933,-4.3908,-4.3873,-4.3827,-4.382,-4.3783,-4.3764,-4.376,-4.3761,-4.3752,-4.3753,-4.3771,-4.3741,-4.3741,-4.3741,-4.3741,0,-4.4336,-4.4314,-4.4252,-4.4233,-4.4207,-4.416,-4.4135,-4.4102,-4.4061,-4.4033,-4.3992,-4.3966,-4.3908,-4.3875,-4.3838,-4.3803,-4.3792,-4.377,-4.376,-4.3773,-4.3775,-4.3756,-4.3754,-4.3741,-4.3741,-4.3741,-4.3741,0,-4.4369,-4.4327,-4.4291,-4.4233,-4.4217,-4.42,-4.4149,-4.4128,-4.4093,-4.4058,-4.4047,-4.3991,-4.395,-4.3901,-4.3843,-4.3818,-4.3785,-4.3772,-4.3802,-4.3796,-4.3794,-4.3795,-4.3799,-4.3796,-4.377,-4.377,-4.377,0,-4.4377,-4.436,-4.4301,-4.4281,-4.4254,-4.4222,-4.4197,-4.415,-4.4124,-4.407,-4.4055,-4.4011,-4.3973,-4.3909,-4.3861,-4.3816,-4.38,-4.3805,-4.3793,-4.3806,-4.3798,-4.3799,-4.3796,-4.3808,-4.3808,-4.3809,-4.3809,0,-4.4396,-4.4376,-4.4343,-4.4302,-4.4274,-4.4239,-4.4202,-4.4187,-4.4132,-4.4105,-4.4064,-4.4035,-4.3977,-4.3933,-4.3883,-4.385,-4.3819,-4.3814,-4.381,-4.3821,-4.3839,-4.3828,-4.3809,-4.3813,-4.3813,-4.3812,-4.3812,-4.3812,-4.4415,-4.4398,-4.4354,-4.4317,-4.4285,-4.4252,-4.4229,-4.4193,-4.4158,-4.4109,-4.4083,-4.4042,-4.3994,-4.3923,-4.3892,-4.3857,-4.3846,-4.3842,-4.384,-4.3839,-4.3842,-4.3847,-4.3848,-4.3848,-4.3847,-4.3847,-4.3847,0,-4.443,-4.44,-4.4368,-4.4319,-4.429,-4.4267,-4.4225,-4.4201,-4.4167,-4.4126,-4.4091,-4.4042,-4.4,-4.395,-4.3903,-4.3885,-4.387,-4.3874,-4.3874,-4.3867,-4.3855,-4.3862,-4.3887,-4.3887,-4.3887,-4.3887,-4.3887,-4.3887,-4.4435,-4.4404,-4.4379,-4.433,-4.4299,-4.4261,-4.4239,-4.4207,-4.4174,-4.4123,-4.4089,-4.4058,-4.4012,-4.3962,-4.3921,-4.3907,-4.3891,-4.39,-4.3882,-4.3871,-4.3868,-4.3864,-4.3871,-4.3897,-4.3897,-4.3896,-4.3896,-4.3896]}]]